FENGYUN 1C DEB, 31990

Orbit data source: Space-Track

FENGYUN 1C DEB, 31990 is space debris in SSO originally from a launch on Mon, 10 May 1999 UTC launched from the Taiyaun Space Center, China (TSC). Fengyun 1C debris stems from the Chinese weather satellite Fengyun-1C, which was intentionally destroyed by a Chinese anti-satellite missile in 2007. This event dramatically increased the amount of space debris, with thousands of trackable fragments posing hazards to satellites and human spaceflight. The Fengyun 1C debris cloud has become a focal point in discussions about space sustainability and the need for international regulations to prevent the creation of new debris.

Loading next visibility...
Identifier
31990, 1999-025CPT
Orbit
SSO
Country
Flag of CNCN / PRC
Related business
Manufacturer
Unknown
Mission
Spacecraft
Bus & Motor
Unknown
Mass
Unknown
Launch date (UTC)
1999-05-10 (27 years ago)
Launch vehicle
Unknown
Launch site
Taiyaun Space Center, China (TSC)
Object type
Payload
Rocket body
Debris
Shape & HBR
Unknown shape, 0.1 m
Radar Cross Section
Small (<0.1 m²)

Expand to show TLE details & history
Last TLE update: 7 hours ago

TLE from 7 hours ago
0 FENGYUN 1C DEB
1 31990U 99025CPT 26146.29404946  .00000193  00000-0  25998-3 0  9993
2 31990  99.1464 162.5924 0261074 123.1209 256.0475 13.57287530650049
Epoch: 2026-05-26T07:03Z
TLE epoch observation values (Epoch: 2026-05-26T07:03:25.873Z)
Latitude
16.05826°
Longitude
170.22233°
Altitude
1,099.187 km
Speed
7.279 km/s
True Right ascension
10h 39m 47s
True Declination
15° 58' 16"
Sunlit
Object was in daylight at epoch
Visualization orbit readout
Latitude
Unknown
Longitude
Unknown
Altitude
Unknown
Speed
Unknown
Apparent Right ascension
Unknown
Apparent Declination
Unknown
Sunlit
N/A
Visualization observer readout
Local Sidereal Time
23:15:37
Azimuth
Unknown
Elevation
Unknown
Doppler factor
Unknown
Orbital elements
Apogee altitude
1,236.569 km
Perigee altitude
849.085 km
Semi-major axis
7,420.964 km
Eccentricity
0.02611
Inclination
99.1464°
RAAN
162.5924°
Arg. of periapsis
123.1209°
True anomaly
253.16797°
Mean anomaly
256.0475°
Eccentric anomaly
254.60533°
Mean motion
3.3951 °/min
Orbital period
106.04 mins
BSTAR
0.00025998
Loading maneuver chart data...
Computing Atmospheric mass density...

Documentation

Showing up to 5 results
|